Weather History for Corpus Christi, TX

Change the Weather History Date:

Wednesday, January 2, 2013

  Actual Average Record
Temperature  
Mean Temperature 47 °F 57 °F  
Max Temperature 51 °F 67 °F 87 °F (2000)
Min Temperature 43 °F 47 °F 22 °F (1979)
Degree Days  
Heating Degree Days 18 9  
Month to date heating degree days 22 18  
Since 1 July heating degree days 197 369  
Cooling Degree Days 0 1  
Month to date cooling degree days 0 2  
Year to date cooling degree days 0 2  
Moisture  
Dew Point 37 °F    
Average Humidity 75    
Maximum Humidity 89    
Minimum Humidity 60    
Precipitation  
Precipitation 0.18 in 0.06 in 0.83 in (1978)
Month to date precipitation 0.24 0.11  
Year to date precipitation 0.24 0.11  
Snow  
Snow 0.00 in - - ()
Month to date snowfall 0.0  
Since 1 July snowfall 0.0  
Snow Depth 0.00 in    
Sea Level Pressure  
Sea Level Pressure 30.26 in    
Wind  
Wind Speed 13 mph (North)    
Max Wind Speed 23 mph    
Max Gust Speed 29 mph    
Visibility 10 miles    
Events Rain    
T = Trace of Precipitation, MM = Missing Value Source: NWS Daily Summary

Daily Weather History Graph

Daily Weather History Graph

Search for Another Location

Airport:

Trip Planner

Search our weather history database for the weather conditions in past years. The results will help you decide how hot, cold, wet, or windy it might be!

Date:

Astronomy

Jan. 02, 2013 Rise Set
Actual Time 7:21 AM CST 5:47 PM CST
Civil Twilight 6:55 AM CST 6:12 PM CST
Nautical Twilight 6:26 AM CST 6:42 PM CST
Astronomical Twilight 5:58 AM CST 7:10 PM CST
Moon 10:50 PM CST (1/2) 10:31 AM CST (1/2)
Length of Visible Light 11h 17m
Length of Day
10h 26m
Waning Gibbous, 75% of the Moon is Illuminated
Jan 2
Waning Gibbous
Jan 4
Last Quarter
Jan 11
New
Jan 18
First Quarter
Jan 26
Full

Hourly Weather History & Observations

Time (CST) Temp. Windchill Dew Point Humidity Pressure Visibility Wind Dir Wind Speed Gust Speed Precip Events Conditions
12:51 AM 51.1 °F - 41.0 °F 68% 30.19 in 10.0 mi North 11.5 mph - N/A   Scattered Clouds
1:51 AM 50.0 °F - 39.9 °F 68% 30.19 in 10.0 mi NNE 19.6 mph - N/A   Overcast
2:51 AM 50.0 °F - 39.0 °F 66% 30.21 in 10.0 mi North 17.3 mph - N/A   Overcast
3:51 AM 48.9 °F - 39.0 °F 69% 30.20 in 10.0 mi NNE 17.3 mph 23.0 mph N/A   Mostly Cloudy
4:51 AM 48.0 °F - 37.0 °F 66% 30.22 in 10.0 mi North 18.4 mph - N/A   Mostly Cloudy
5:51 AM 46.9 °F - 34.0 °F 61% 30.22 in 10.0 mi NNE 17.3 mph - 0.00 in   Overcast
6:51 AM 46.0 °F 39.3 °F 36.0 °F 68% 30.25 in 10.0 mi North 16.1 mph - 0.00 in Rain Light Rain
7:51 AM 45.0 °F 38.9 °F 37.9 °F 76% 30.26 in 10.0 mi North 12.7 mph - 0.00 in Rain Light Rain
8:51 AM 44.1 °F 37.4 °F 35.1 °F 71% 30.29 in 10.0 mi North 13.8 mph - 0.00 in Rain Light Rain
9:51 AM 44.1 °F 38.1 °F 36.0 °F 73% 30.32 in 10.0 mi North 11.5 mph - 0.01 in Rain Light Rain
10:51 AM 42.8 °F 36.2 °F 35.6 °F 76% 30.31 in 10.0 mi North 12.7 mph - N/A Rain Light Rain
11:51 AM 43.0 °F 37.7 °F 37.0 °F 80% 30.30 in 10.0 mi North 9.2 mph - 0.01 in Rain Light Rain
12:51 PM 43.0 °F 36.8 °F 37.0 °F 80% 30.29 in 9.0 mi NNW 11.5 mph - 0.03 in Rain Light Rain
1:51 PM 43.0 °F 35.7 °F 37.0 °F 80% 30.25 in 7.0 mi North 15.0 mph - 0.01 in Rain Light Rain
2:51 PM 43.0 °F 36.8 °F 37.9 °F 82% 30.22 in 7.0 mi North 11.5 mph - 0.02 in Rain Light Rain
3:51 PM 43.0 °F 36.4 °F 37.9 °F 82% 30.23 in 9.0 mi North 12.7 mph - 0.02 in Rain Light Rain
4:51 PM 43.0 °F 36.8 °F 39.0 °F 86% 30.25 in 8.0 mi North 11.5 mph - 0.01 in Rain Light Rain
5:51 PM 43.0 °F 37.7 °F 37.9 °F 82% 30.27 in 8.0 mi North 9.2 mph - 0.01 in Rain Light Rain
6:51 PM 43.0 °F 37.2 °F 37.9 °F 82% 30.29 in 10.0 mi North 10.4 mph - 0.03 in Rain Light Rain
7:51 PM 43.0 °F 38.2 °F 37.9 °F 82% 30.29 in 10.0 mi North 8.1 mph - 0.02 in Rain Light Rain
8:51 PM 43.0 °F 38.2 °F 37.9 °F 82% 30.30 in 10.0 mi North 8.1 mph - 0.00 in   Overcast
9:51 PM 44.1 °F 39.0 °F 37.9 °F 79% 30.31 in 10.0 mi North 9.2 mph - N/A   Overcast
10:51 PM 44.1 °F 38.6 °F 37.0 °F 76% 30.30 in 10.0 mi North 10.4 mph - N/A   Overcast
11:51 PM 44.1 °F 38.6 °F 37.0 °F 76% 30.30 in 10.0 mi North 10.4 mph - N/A   Overcast